Regional Weather Roundup
Issued by NWS

Home | Current Version | Previous Version | Text Only | Print | Product List | Glossary Off
Versions: 1 2 3 4 5 6 7 8 9 10 11 12 13 14 15 16 17 18 19 20 21 22 23 24 25 26 27 28 29 30 31 32 33 34 35 36 37 38 39 40 41 42 43 44 45 46 47 48 49 50

000
ASUS43 KLOT 231208
RWRIL

ILLINOIS REGIONAL WEATHER ROUNDUP
NATIONAL WEATHER SERVICE CHICAGO/ROMEOVILLE IL
700 AM CDT SUN APR 23 2017

NOTE: "FAIR" INDICATES FEW OR NO CLOUDS BELOW 12,000 FEET WITH NO
SIGNIFICANT WEATHER AND/OR OBSTRUCTIONS TO VISIBILITY.

* THESE STATIONS ARE NOT UNDER NWS QUALITY CONTROL. THEY ALSO MAY NOT
  REPORT WEATHER SUCH AS PRECIPITATION OR FOG.

ILZ001-002-007-009-015-016-024-231300-
NORTHWEST ILLINOIS

CITY           SKY/WX    TMP DP  RH WIND       PRES   REMARKS
MOLINE         CLEAR     37  35  92 CALM      30.16R
6HR MIN TEMP:  35; 6HR MAX TEMP:  42;

STERLING*      CLEAR     38  37  97 CALM      30.17R
SAVANNA*         N/A     35  35  99 NE3       30.17R FOG
$$

ILZ003-004-008-010-011-017-018-231300-
NORTH CENTRAL ILLINOIS

CITY           SKY/WX    TMP DP  RH WIND       PRES   REMARKS
ROCKFORD       CLEAR     37  33  85 CALM      30.18R
6HR MIN TEMP:  35; 6HR MAX TEMP:  42;

FREEPORT*      CLEAR     32  29  87 CALM      30.17R
ROCHELLE*      CLEAR     35  30  83 CALM      30.16R
DE KALB*       CLEAR     39  27  62 CALM      30.16R
PERU*          CLEAR     39  27  63 CALM      30.17R
$$

ILZ005-006-012>014-019>023-231300-
NORTHEAST ILLINOIS

CITY           SKY/WX    TMP DP  RH WIND       PRES   REMARKS
CHICAGO-OHARE  MOSUNNY   41  31  67 W3        30.14R
6HR MIN TEMP:  37; 6HR MAX TEMP:  43;

CHICAGO-MIDWAY MOSUNNY   43  33  68 CALM      30.14F
6HR MIN TEMP:  39; 6HR MAX TEMP:  47;

AURORA         CLEAR     34  31  88 W3        30.16R
6HR MIN TEMP:  32; 6HR MAX TEMP:  39;

LANSING*       SUNNY     35  33  92 CALM      30.16S
JOLIET*        SUNNY     37  35  91 CALM      30.16S
WAUKEGAN       SUNNY     41  32  70 SW3       30.14R
6HR MIN TEMP:  33; 6HR MAX TEMP:  41;

DUPAGE AIRPORT SUNNY     36  32  85 CALM      30.15R
6HR MIN TEMP:  32; 6HR MAX TEMP:  39;

KANKAKEE*      SUNNY     42  35  79 CALM      30.16S
WHEELING       SUNNY     38  34  85 CALM      30.16R
6HR MIN TEMP:  33; 6HR MAX TEMP:  41;

MORRIS*        CLEAR     37  31  78 CALM      30.15S
ROMEOVILLE*    SUNNY     38  34  86 CALM      30.15S
NORTHERLY ISL    N/A     50  32  50 CALM        N/A
$$

LMZ740>746-231300-
SOUTHERN LAKE MICHIGAN

STATION/POSITION SKY/WX   TEMP    WIND        PRES    VSBY  WAVE
                          AIR SEA DIR/SP/G                  HT/PER
                          (F)     (DEG/KT/KT) (MB)    (MI)  (FT/S)
HARRISON CRIB              51     210/  4/  4   N/A
BURNHAM HARBOR             51      CALM  /  4   N/A
CALUMET HARBOR             43     200/  3/  4 1020.1F
BURNS HARBOR               46      CALM  /  8 1021.3
MICHIGAN CITY              42      CALM  /  1   N/A
ST. JOSEPH                 47 48  220/  2/  2 1021.5          1/ 3
$$

ILZ025>027-034>036-040-047-049-050-058-095>099-231300-
WEST-CENTRAL ILLINOIS

CITY           SKY/WX    TMP DP  RH WIND       PRES   REMARKS
QUINCY         CLEAR     38  31  76 N7        30.16R WCI  33
GALESBURG*     CLEAR     35  32  88 CALM      30.15S
MACOMB*        CLEAR     38  31  75 N6        30.18R WCI  34
JACKSONVILLE*  CLEAR     37  30  74 N3        30.15R
PITTSFIELD*    CLEAR     40  31  71 N6        30.16R
$$

ILZ028>032-037-038-041>044-048-051>054-059>061-231300-
CENTRAL ILLINOIS

CITY           SKY/WX    TMP DP  RH WIND       PRES   REMARKS
PONTIAC        PTCLDY    38  33  80 CALM      30.17R
BLOOMINGTON    CLEAR     40  27  59 N9        30.15R
DECATUR        CLEAR     40  31  70 N10       30.12R
PEORIA         CLEAR     39  31  72 CALM      30.16R
6HR MIN TEMP:  36; 6HR MAX TEMP:  46;

LACON*         CLEAR     36  33  88 CALM      30.16R
LINCOLN*       CLEAR     42  29  61 N3        30.15R
SPRINGFIELD    CLEAR     39  32  76 N5        30.14R
6HR MIN TEMP:  37; 6HR MAX TEMP:  45;

TAYLORVILLE    CLEAR     39  29  65 N10       30.12R WCI  33
6HR MIN TEMP:  35; 6HR MAX TEMP:  44;

$$

ILZ033-039-045-046-055>057-062-063-231300-
EAST-CENTRAL ILLINOIS

CITY           SKY/WX    TMP DP  RH WIND       PRES   REMARKS
CHAMPAIGN      CLEAR     41  29  62 N9        30.12R
RANTOUL*       CLEAR     43  31  63 N8        30.13R
MATTOON        CLEAR     39  32  76 N10       30.09R WCI  32
PARIS*         SUNNY     40  33  73 N7        30.10R
$$

ILZ079-100>102-231300-
SOUTHWEST ILLINOIS

CITY           SKY/WX    TMP DP  RH WIND       PRES   REMARKS
ALTON          CLEAR     43  28  56 N10       30.10R
BELLEVILLE     CLEAR     44  33  65 N8        30.07R
CAHOKIA*       CLEAR     44  32  62 N6        30.09R
SPARTA*        CLEAR     41  34  77 N6        30.06R
$$

ILZ064>066-069>071-074>076-080>082-084>086-088>090-092>094-231300-
SOUTH-CENTRAL ILLINOIS

CITY           SKY/WX    TMP DP  RH WIND       PRES   REMARKS
CARBONDALE     CLOUDY    45  38  76 N7        30.03R
6HR MIN TEMP:  45; 6HR MAX TEMP:  51;

CAIRO*         MOCLDY    48  38  70 N15       29.97R
EFFINGHAM*     CLEAR     42  33  71 N6        30.09R
MARION         PTCLDY    48  39  71 N9        30.02R
MT. VERNON     CLEAR     43  34  70 N8        30.04R
CENTRALIA*     CLEAR     42  36  78 N8        30.05R
SALEM*         CLEAR     42  34  71 N8        30.06R
METROPOLIS*    PTCLDY    48  39  70 N9G18     29.97R
$$

ILZ067-068-072-073-078-083-087-091-231300-
SOUTHEAST ILLINOIS

CITY           SKY/WX    TMP DP  RH WIND       PRES   REMARKS
LAWRENCEVILLE  SUNNY     44  36  73 N10       30.04R
FLORA*         CLEAR     43  36  76 N7        30.05R
FAIRFIELD*     PTCLDY    44  36  74 N7        30.02S
HARRISBURG*    PTCLDY    46  38  72 N10G18    30.01R
ROBINSON*      SUNNY     42  34  73 NE13      30.06S
CARMI*         CLEAR     45  37  75 N9        30.02R
$$

ABBREVIATIONS USED IN REMARKS
   TC - TEMPERATURE IN CELSIUS
  WCI - WIND CHILL INDEX
   HX - HEAT INDEX
  VSB - VISIBILITY
$$




USA.gov is the U.S. government's official web portal to all federal, state and local government web resources and services.